Regional Weather Roundup
Issued by NWS

Home | Current Version | Previous Version | Graphics & Text | Print | Product List | Glossary On
Versions: 1 2 3 4 5 6 7 8 9 10 11 12 13 14 15 16 17 18 19 20 21 22 23 24 25 26 27 28 29 30 31 32 33 34 35 36 37 38 39 40 41 42 43 44 45 46 47 48 49 50
901
ASUS44 KLIX 282305
RWRLA
LOUISIANA WEATHER ROUNDUP
NATIONAL WEATHER SERVICE NEW ORLEANS LA
500 PM CST SAT FEB 28 2015

NOTE: "FAIR" INDICATES FEW OR NO CLOUDS BELOW 12,000 FEET WITH NO
      SIGNIFICANT WEATHER AND/OR OBSTRUCTIONS TO VISIBILITY.
      SKY/WX - SKY CONDITION AND SIGNIFICANT WEATHER.
      TMP - AIR TEMPERATURE.    DP   - DEWPOINT TEMPERATURE.
      RH  - RELATIVE HUMIDITY.  PRES - PRESSURE.
      HX  - HEAT INDEX.         WCI  - WIND CHILL INDEX.

*  THESE STATIONS ARE NOT NWS OR FAA STATIONS AND ARE NOT UNDER
   NWS QUALITY CONTROL.

LAZ040-048-061>063-065-066-069-010000-
SOUTHEAST LOUISIANA

CITY           SKY/WX    TMP DP  RH WIND       PRES   REMARKS
N.O. AUDUBON     N/A     59  50  72 MISG        N/A
N.O. INTL ARPT PTSUNNY   59  47  64 E12       30.31R
N.O. LAKEFRONT PTSUNNY   59  47  64 E14       30.33R
SLIDELL        MOSUNNY   62  48  60 E7        30.32R
BATON ROUGE    PTSUNNY   65  41  41 SE14      30.29S
BOOTHVILLE     CLOUDY    57  53  86 NE12      30.30S
BELLE CHASSE   PTSUNNY   61  47  59 E9        30.31R
BOGALUSA*        N/A     70  33  25 SE5       30.32R
GALLIANO*      MOCLDY    60  51  70 NE6       30.31R
NEW ROADS*     MOCLDY    65  40  40 E10       30.28S
GONZALES*      MOCLDY    64  42  45 E6        30.29S
HAMMOND*       MOSUNNY   64  43  45 SE8       30.32S
HOUMA*         SUNNY     61  52  72 NE13      30.29R
PORT FOURCHON* MOCLDY    57  54  88 NE15G24   30.32R

$$

LAZ041-044-053-054-010000-
SOUTHWEST LOUISIANA

CITY           SKY/WX    TMP DP  RH WIND       PRES   REMARKS
LAKE CHARLES   PTSUNNY   62  47  57 E12       30.25S
LAFAYETTE      MOSUNNY   66  44  45 CALM      30.26S
PATTERSON      CLOUDY    64  48  55 E9        30.28S
SALT POINT       N/A     64  53  67 E6        30.25S
NEW IBERIA     MOSUNNY   65  45  48 SE13      30.27S
CHENAULT AIRPK NOT AVBL

$$

LAZ027-028-010000-
CENTRAL LOUISIANA

CITY           SKY/WX    TMP DP  RH WIND       PRES   REMARKS
FORT POLK      CLOUDY    57  41  56 NE5       30.27S
ALEXANDRIA INT CLOUDY    56  36  47 NE6       30.29R
ALEXANDRIA     CLOUDY    59  37  44 CALM      30.30R

$$

LAZ001-002-010000-
NORTHWEST LOUISIANA

CITY           SKY/WX    TMP DP  RH WIND       PRES   REMARKS
SHREVEPORT     CLOUDY    48  32  53 E7        30.30F
BARKSDALE AFB  CLOUDY    48  32  54 E3        30.31F
DTN SHREVEPORT CLOUDY    47  30  51 E6        30.31F

$$

LAZ014-016-010000-
NORTHEAST LOUISIANA

CITY           SKY/WX    TMP DP  RH WIND       PRES   REMARKS
MONROE         CLOUDY    49  35  58 E6        30.34F
TALLULAH       CLOUDY    52  38  58 N10       30.33S

$$




USA.gov is the U.S. government's official web portal to all federal, state and local government web resources and services.